• In Uzbekistan
  • List of Countries
  • For 7 days
  • Water Temperature
  • Satellite Maps
  • Weather Map
  • Weather Widgets
  • user-avatar
    Login

    Hourly Weather Naftalan

    Today, 25 September, Tuesday

    Time Temperature Precipitation Wind Pressure Humidity
    00:00 +24°C° 0 mm 2 mps 765 mmHg 72%
    01:00 +24°C° 0 mm 2 mps 765 mmHg 73%
    02:00 +24°C° 0 mm 2 mps 764 mmHg 74%
    03:00 +24°C° 0 mm 2 mps 764 mmHg 75%
    04:00 +24°C° 0 mm 3 mps 764 mmHg 75%
    05:00 +22°C° 0 mm 3 mps 764 mmHg 75%
    06:00 +22°C° 0 mm 3 mps 764 mmHg 76%
    07:00 +25°C° 0 mm 3 mps 764 mmHg 67%
    08:00 +27°C° 0 mm 4 mps 763 mmHg 59%
    09:00 +29°C° 0 mm 4 mps 763 mmHg 51%
    10:00 +30°C° 0 mm 4 mps 763 mmHg 47%
    11:00 +32°C° 0 mm 4 mps 762 mmHg 43%
    12:00 +33°C° 0 mm 5 mps 762 mmHg 38%
    13:00 +33°C° 0 mm 5 mps 762 mmHg 40%
    14:00 +33°C° 0 mm 6 mps 761 mmHg 42%
    15:00 +33°C° 0 mm 6 mps 761 mmHg 43%
    16:00 +30°C° 0 mm 6 mps 761 mmHg 49%
    17:00 +28°C° 0 mm 6 mps 760 mmHg 55%
    18:00 +27°C° 0 mm 6 mps 760 mmHg 61%
    19:00 +27°C° 0 mm 6 mps 761 mmHg 64%
    20:00 +26°C° 0 mm 5 mps 761 mmHg 67%
    21:00 +26°C° 0 mm 5 mps 761 mmHg 70%
    22:00 +26°C° 0 mm 4 mps 761 mmHg 72%
    23:00 +25°C° 0 mm 4 mps 761 mmHg 74%

    Tomorrow, 26 September, Wednesday

    Time Temperature Precipitation Wind Pressure Humidity
    00:00 +25°C° 0 mm 3 mps 761 mmHg 77%
    01:00 +25°C° 0 mm 3 mps 761 mmHg 77%
    02:00 +25°C° 0 mm 2 mps 761 mmHg 77%
    03:00 +25°C° 0 mm 1 mps 761 mmHg 77%
    04:00 +24°C° 0 mm 1 mps 761 mmHg 75%
    05:00 +24°C° 0 mm 1 mps 762 mmHg 73%
    06:00 +24°C° 0 mm 1 mps 762 mmHg 72%
    07:00 +26°C° 0 mm 1 mps 763 mmHg 65%
    08:00 +28°C° 0 mm 2 mps 763 mmHg 58%
    09:00 +29°C° 0 mm 2 mps 764 mmHg 51%
    10:00 +30°C° 0 mm 3 mps 764 mmHg 50%
    11:00 +32°C° 0 mm 5 mps 764 mmHg 48%
    12:00 +32°C° 0 mm 6 mps 764 mmHg 47%
    13:00 +31°C° 0 mm 8 mps 764 mmHg 49%
    14:00 +31°C° 0 mm 9 mps 764 mmHg 51%
    15:00 +29°C° 0 mm 11 mps 764 mmHg 53%
    16:00 +28°C° 0 mm 11 mps 764 mmHg 57%
    17:00 +26°C° 0 mm 11 mps 765 mmHg 60%
    18:00 +24°C° 0 mm 12 mps 765 mmHg 63%
    19:00 +23°C° 0 mm 12 mps 766 mmHg 63%
    20:00 +23°C° 0 mm 12 mps 766 mmHg 63%
    21:00 +22°C° 0 mm 12 mps 767 mmHg 63%
    22:00 +22°C° 0 mm 12 mps 767 mmHg 63%
    23:00 +22°C° 0 mm 11 mps 767 mmHg 63%

    Day after tomorrow, 27 September, Thursday

    Time Temperature Precipitation Wind Pressure Humidity
    00:00 +21°C° 0 mm 11 mps 767 mmHg 63%
    01:00 +21°C° 0 mm 10 mps 767 mmHg 64%
    02:00 +21°C° 0 mm 10 mps 767 mmHg 65%
    03:00 +21°C° 0 mm 10 mps 767 mmHg 65%
    04:00 +21°C° 0 mm 9 mps 768 mmHg 65%
    05:00 +21°C° 0 mm 9 mps 768 mmHg 66%
    06:00 +19°C° 0 mm 9 mps 768 mmHg 66%
    07:00 +21°C° 0 mm 9 mps 768 mmHg 63%
    08:00 +22°C° 0 mm 9 mps 769 mmHg 59%
    09:00 +23°C° 0 mm 8 mps 769 mmHg 56%
    10:00 +24°C° 0 mm 8 mps 769 mmHg 54%
    11:00 +26°C° 0 mm 8 mps 769 mmHg 51%
    12:00 +27°C° 0 mm 8 mps 769 mmHg 49%
    13:00 +26°C° 0 mm 8 mps 768 mmHg 51%
    14:00 +26°C° 0 mm 8 mps 768 mmHg 53%
    15:00 +26°C° 0 mm 8 mps 768 mmHg 54%
    16:00 +24°C° 0 mm 8 mps 769 mmHg 58%
    17:00 +23°C° 0 mm 8 mps 769 mmHg 62%
    18:00 +22°C° 0 mm 8 mps 769 mmHg 66%
    19:00 +22°C° 0 mm 8 mps 769 mmHg 66%
    20:00 +22°C° 0 mm 8 mps 770 mmHg 66%
    21:00 +21°C° 0 mm 8 mps 770 mmHg 66%
    22:00 +21°C° 0 mm 7 mps 770 mmHg 67%
    23:00 +21°C° 0 mm 7 mps 770 mmHg 67%

    28 September, Friday

    Time Temperature Precipitation Wind Pressure Humidity
    00:00 +21°C° 0 mm 6 mps 769 mmHg 67%
    01:00 +21°C° 0 mm 6 mps 769 mmHg 67%
    02:00 +21°C° 0 mm 6 mps 769 mmHg 68%
    03:00 +21°C° 0 mm 6 mps 769 mmHg 68%
    04:00 +21°C° 0 mm 6 mps 770 mmHg 68%
    05:00 +21°C° 0 mm 6 mps 770 mmHg 68%
    06:00 +21°C° 0 mm 6 mps 770 mmHg 68%
    07:00 +21°C° 0 mm 6 mps 770 mmHg 66%
    08:00 +22°C° 0 mm 6 mps 770 mmHg 64%
    09:00 +22°C° 0 mm 5 mps 771 mmHg 62%
    10:00 +23°C° 0 mm 5 mps 770 mmHg 60%
    11:00 +25°C° 0 mm 5 mps 770 mmHg 58%
    12:00 +26°C° 0 mm 4 mps 770 mmHg 55%
    13:00 +26°C° 0 mm 5 mps 770 mmHg 55%
    14:00 +26°C° 0 mm 5 mps 769 mmHg 55%
    15:00 +26°C° 0 mm 5 mps 769 mmHg 55%
    16:00 +25°C° 0 mm 5 mps 769 mmHg 59%
    17:00 +25°C° 0 mm 5 mps 769 mmHg 63%
    18:00 +23°C° 0 mm 4 mps 769 mmHg 66%
    19:00 +22°C° 0 mm 4 mps 769 mmHg 67%
    20:00 +22°C° 0 mm 4 mps 769 mmHg 69%
    21:00 +22°C° 0 mm 4 mps 769 mmHg 70%
    22:00 +22°C° 0 mm 3 mps 769 mmHg 70%
    23:00 +22°C° 0 mm 3 mps 768 mmHg 71%

    29 September, Saturday

    Time Temperature Precipitation Wind Pressure Humidity
    00:00 +22°C° 0 mm 3 mps 768 mmHg 72%
    01:00 +22°C° 0 mm 3 mps 767 mmHg 72%
    02:00 +23°C° 0 mm 2 mps 767 mmHg 72%
    03:00 +23°C° 0 mm 2 mps 767 mmHg 72%
    04:00 +23°C° 0 mm 2 mps 767 mmHg 73%
    05:00 +23°C° 0 mm 2 mps 767 mmHg 73%
    06:00 +23°C° 0 mm 2 mps 766 mmHg 74%
    07:00 +24°C° 0 mm 2 mps 766 mmHg 71%
    08:00 +24°C° 0 mm 2 mps 766 mmHg 69%
    09:00 +25°C° 0 mm 2 mps 766 mmHg 67%
    10:00 +26°C° 0 mm 2 mps 765 mmHg 66%
    11:00 +26°C° 0 mm 3 mps 765 mmHg 64%
    12:00 +27°C° 0 mm 3 mps 764 mmHg 63%
    13:00 +28°C° 0 mm 4 mps 764 mmHg 63%
    14:00 +28°C° 0 mm 4 mps 763 mmHg 63%
    15:00 +29°C° 0 mm 5 mps 763 mmHg 62%
    16:00 +28°C° 0 mm 5 mps 763 mmHg 68%
    17:00 +27°C° 0 mm 5 mps 763 mmHg 73%
    18:00 +26°C° 0 mm 5 mps 763 mmHg 78%
    19:00 +25°C° 0 mm 5 mps 763 mmHg 80%
    20:00 +25°C° 0 mm 4 mps 763 mmHg 82%
    21:00 +25°C° 0 mm 4 mps 763 mmHg 84%
    22:00 +25°C° 0 mm 4 mps 763 mmHg 86%
    23:00 +24°C° 0 mm 3 mps 762 mmHg 87%

    30 September, Sunday

    Time Temperature Precipitation Wind Pressure Humidity
    00:00 +24°C° 0 mm 3 mps 762 mmHg 89%
    01:00 +24°C° 0 mm 2 mps 762 mmHg 89%
    02:00 +24°C° 0 mm 2 mps 762 mmHg 89%
    03:00 +24°C° 0 mm 2 mps 762 mmHg 88%
    04:00 +24°C° 0 mm 1 mps 762 mmHg 88%
    05:00 +24°C° 0 mm 1 mps 762 mmHg 88%
    06:00 +24°C° 0 mm 1 mps 762 mmHg 88%
    07:00 +25°C° 0 mm 1 mps 762 mmHg 81%
    08:00 +27°C° 0 mm 1 mps 762 mmHg 73%
    09:00 +28°C° 0 mm 1 mps 762 mmHg 66%
    10:00 +29°C° 0 mm 1 mps 762 mmHg 60%
    11:00 +31°C° 0 mm 2 mps 761 mmHg 53%
    12:00 +32°C° 0 mm 2 mps 761 mmHg 47%
    13:00 +32°C° 0 mm 2 mps 761 mmHg 46%
    14:00 +34°C° 0 mm 3 mps 761 mmHg 46%
    15:00 +34°C° 0 mm 4 mps 760 mmHg 46%
    16:00 +32°C° 0 mm 4 mps 760 mmHg 54%
    17:00 +29°C° 0 mm 4 mps 761 mmHg 63%
    18:00 +28°C° 0 mm 4 mps 761 mmHg 71%
    19:00 +27°C° 0 mm 4 mps 761 mmHg 71%
    20:00 +27°C° 0 mm 4 mps 761 mmHg 71%
    21:00 +26°C° 0 mm 3 mps 761 mmHg 71%
    22:00 +26°C° 0 mm 3 mps 761 mmHg 72%
    23:00 +26°C° 0 mm 3 mps 761 mmHg 72%
    Show more